Maxwell AFB, AL

10:29 AM CST on December 11, 2017 (GMT -0600)
Maxwell Air Force Base

Weather History for KMXF - December, 2013

Change the Weather History Date:

Thursday, December 5, 2013

  Actual Average Record
Temperature  
Mean Temperature 73 °F -  
Max Temperature 80 °F 61 °F 80 °F (1998)
Min Temperature 66 °F 42 °F 24 °F (2006)
Cooling Degree Days 8    
Growing Degree Days 23 (Base 50)    
Moisture  
Dew Point 69 °F    
Average Humidity 92    
Maximum Humidity 100    
Minimum Humidity 69    
Precipitation  
Precipitation 0.03 in - - ()
Sea Level Pressure  
Sea Level Pressure 30.01 in    
Wind  
Wind Speed 5 mph (South)    
Max Wind Speed 14 mph    
Max Gust Speed 16 mph    
Visibility 10 miles    
Events Rain    
Averages and records for this station are not official NWS values.
T = Trace of Precipitation, MM = Missing Value Source: NWS Daily Summary

Daily Weather History Graph

Daily Weather History Graph

Search for Another Location

Airport or City:

Trip Planner

Search our weather history database for the weather conditions in past years. The results will help you decide how hot, cold, wet, or windy it might be!

Date:

Astronomy

Dec. 05, 2013 Rise Set
Actual Time 6:32 AM CST 4:39 PM CST
Civil Twilight 6:05 AM CST 5:06 PM CST
Nautical Twilight 5:35 AM CST 5:37 PM CST
Astronomical Twilight 5:05 AM CST 6:07 PM CST
Moon 8:56 AM CST (12/5) 7:54 PM CST (12/5)
Length of Visible Light 11h 01m
Length of Day
10h 07m
Waxing Crescent, 11% of the Moon is Illuminated
Dec 5
Waxing Crescent
Dec 9
First Quarter
Dec 17
Full
Dec 25
Last Quarter
Jan 1
New

Hourly Weather History & Observations

Time (CST) Temp. Heat Index Dew Point Humidity Pressure Visibility Wind Dir Wind Speed Gust Speed Precip Events Conditions
12:18 AM 66.2 °F - 66.2 °F 100% 29.99 in 9.0 mi North 1.2 mph - N/A   Overcast
12:53 AM 66.2 °F - 66.2 °F 100% 29.99 in 10.0 mi East 1.2 mph - N/A   Overcast
12:58 AM 66.4 °F - 66.0 °F 99% 29.99 in 10.0 mi East 2.3 mph - N/A   Overcast
1:28 AM 66.2 °F - 66.2 °F 100% 29.99 in 8.0 mi South 2.3 mph - N/A   Overcast
1:58 AM 67.3 °F - 66.9 °F 99% 30.01 in 10.0 mi South 3.5 mph - N/A   Overcast
2:33 AM 68.0 °F - 66.2 °F 94% 30.00 in 8.0 mi SE 5.8 mph - N/A   Overcast
2:38 AM 68.0 °F - 68.0 °F 100% 30.00 in 9.0 mi SE 4.6 mph - N/A   Overcast
2:48 AM 68.0 °F - 68.0 °F 100% 30.00 in 10.0 mi ESE 5.8 mph - N/A   Overcast
2:58 AM 67.8 °F - 67.5 °F 99% 30.01 in 10.0 mi SE 5.8 mph - N/A   Overcast
3:28 AM 68.0 °F - 68.0 °F 100% 29.99 in 10.0 mi SE 5.8 mph - N/A   Overcast
3:43 AM 68.0 °F - 68.0 °F 100% 29.99 in 10.0 mi SSE 5.8 mph - N/A   Overcast
3:58 AM 67.8 °F - 67.5 °F 99% 30.00 in 10.0 mi SSE 5.8 mph - N/A   Overcast
4:03 AM 68.0 °F - 68.0 °F 100% 29.99 in 10.0 mi SSE 5.8 mph - N/A   Light Drizzle
4:08 AM 68.0 °F - 68.0 °F 100% 29.99 in 9.0 mi SSE 5.8 mph - N/A   Light Drizzle
4:13 AM 68.0 °F - 68.0 °F 100% 29.99 in 10.0 mi SSE 3.5 mph - N/A   Mostly Cloudy
4:15 AM 68.0 °F - 68.0 °F 100% 29.99 in 9.0 mi SSE 3.5 mph - N/A   Light Drizzle
4:20 AM 68.0 °F - 68.0 °F 100% 29.99 in 9.0 mi SSE 3.5 mph - N/A   Light Drizzle
4:25 AM 68.0 °F - 68.0 °F 100% 30.00 in 9.0 mi South 3.5 mph - N/A   Light Drizzle
4:27 AM 68.0 °F - 68.0 °F 100% 30.00 in 9.0 mi South 3.5 mph - N/A   Mostly Cloudy
4:32 AM 68.0 °F - 68.0 °F 100% 30.00 in 9.0 mi SSE 3.5 mph - N/A   Mostly Cloudy
4:37 AM 68.0 °F - 68.0 °F 100% 30.00 in 8.0 mi SSE 3.5 mph - N/A   Mostly Cloudy
4:52 AM 68.0 °F - 68.0 °F 100% 30.00 in 8.0 mi SSE 3.5 mph - N/A Rain Light Rain
4:58 AM 67.3 °F - 67.1 °F 99% 30.02 in 8.0 mi SSE 4.6 mph - 0.00 in Rain Light Rain
5:01 AM 68.0 °F - 66.2 °F 94% 30.01 in 8.0 mi SSE 4.6 mph - N/A   Overcast
5:06 AM 68.0 °F - 66.2 °F 94% 30.00 in 9.0 mi SSE 4.6 mph - N/A   Mostly Cloudy
5:21 AM 68.0 °F - 68.0 °F 100% 30.01 in 10.0 mi SSE 4.6 mph - N/A   Overcast
5:26 AM 68.0 °F - 68.0 °F 100% 30.01 in 10.0 mi SSE 4.6 mph - N/A   Overcast
5:31 AM 68.0 °F - 66.2 °F 94% 30.01 in 10.0 mi SSE 4.6 mph - N/A   Overcast
5:56 AM 68.0 °F - 68.0 °F 100% 30.01 in 10.0 mi SE 3.5 mph - N/A   Overcast
5:58 AM 67.5 °F - 67.1 °F 99% 30.02 in 10.0 mi SE 3.5 mph - 0.00 in   Overcast
6:58 AM 67.6 °F - 67.6 °F 100% 30.05 in 7.0 mi SE 4.6 mph - N/A   Mostly Cloudy
7:08 AM 68.0 °F - 68.0 °F 100% 30.05 in 7.0 mi Calm Calm - N/A   Mostly Cloudy
7:23 AM 68.0 °F - 68.0 °F 100% 30.06 in 7.0 mi SE 2.3 mph - N/A Rain Light Rain
7:38 AM 68.0 °F - 68.0 °F 100% 30.06 in 8.0 mi Calm Calm - N/A   Light Drizzle
7:40 AM 68.0 °F - 68.0 °F 100% 30.06 in 8.0 mi Calm Calm - N/A   Overcast
7:55 AM 69.8 °F - 69.8 °F 100% 30.06 in 9.0 mi SSE 3.5 mph - N/A   Mostly Cloudy
7:58 AM 69.8 °F - 69.8 °F 100% 30.07 in 8.0 mi SSE 3.5 mph - 0.00 in   Mostly Cloudy
7:59 AM 69.8 °F - 69.8 °F 100% 30.06 in 8.0 mi SSE 3.5 mph - N/A Rain Light Rain
8:04 AM 69.8 °F - 69.8 °F 100% 30.06 in 8.0 mi SSE 3.5 mph - N/A Rain Light Rain
8:09 AM 69.8 °F - 69.8 °F 100% 30.06 in 10.0 mi SSE 5.8 mph - N/A   Scattered Clouds
8:22 AM 69.8 °F - 69.8 °F 100% 30.06 in 10.0 mi SSE 5.8 mph - N/A   Light Drizzle
8:37 AM 71.6 °F - 71.6 °F 100% 30.06 in 9.0 mi SSE 6.9 mph - N/A   Light Drizzle
8:47 AM 71.6 °F - 71.6 °F 100% 30.06 in 9.0 mi SE 6.9 mph - N/A   Light Drizzle
8:48 AM 71.6 °F - 71.6 °F 100% 30.06 in 9.0 mi SSE 6.9 mph - N/A   Mostly Cloudy
8:54 AM 71.6 °F - 71.6 °F 100% 30.06 in 10.0 mi South 4.6 mph - N/A   Light Drizzle
8:58 AM 71.4 °F - 71.1 °F 99% 30.07 in 9.0 mi South 4.6 mph - 0.00 in   Light Drizzle
9:08 AM 71.6 °F - 71.6 °F 100% 30.06 in 10.0 mi South 6.9 mph - N/A   Light Drizzle
9:13 AM 71.6 °F - 71.6 °F 100% 30.06 in 10.0 mi South 5.8 mph - N/A   Light Drizzle
9:23 AM 71.6 °F - 71.6 °F 100% 30.06 in 10.0 mi South 4.6 mph - N/A   Mostly Cloudy
9:28 AM 71.6 °F - 71.6 °F 100% 30.06 in 10.0 mi South 4.6 mph - N/A   Mostly Cloudy
9:33 AM 71.6 °F - 71.6 °F 100% 30.06 in 10.0 mi South 5.8 mph - N/A   Mostly Cloudy
9:38 AM 71.6 °F - 71.6 °F 100% 30.06 in 10.0 mi South 4.6 mph - N/A   Mostly Cloudy
9:40 AM 71.6 °F - 71.6 °F 100% 30.06 in 10.0 mi South 4.6 mph - N/A   Light Drizzle
9:50 AM 73.4 °F - 71.6 °F 94% 30.06 in 10.0 mi South 5.8 mph - N/A   Overcast
9:58 AM 73.0 °F - 72.3 °F 98% 30.06 in 10.0 mi South 5.8 mph - 0.00 in   Overcast
10:03 AM 73.4 °F - 73.4 °F 100% 30.05 in 10.0 mi South 5.8 mph - N/A   Mostly Cloudy
10:13 AM 75.2 °F - 71.6 °F 89% 30.05 in 10.0 mi SSE 5.8 mph - N/A   Mostly Cloudy
10:23 AM 75.2 °F - 71.6 °F 89% 30.05 in 10.0 mi South 5.8 mph - N/A   Mostly Cloudy
10:28 AM 75.2 °F - 71.6 °F 89% 30.05 in 10.0 mi South 6.9 mph - N/A   Mostly Cloudy
10:33 AM 75.2 °F - 71.6 °F 89% 30.04 in 10.0 mi South 5.8 mph - N/A   Mostly Cloudy
10:53 AM 75.2 °F - 71.6 °F 89% 30.03 in 10.0 mi South 5.8 mph - N/A   Overcast
10:58 AM 75.6 °F - 71.4 °F 87% 30.04 in 10.0 mi South 4.6 mph - N/A   Overcast
11:13 AM 77.0 °F - 71.6 °F 83% 30.02 in 10.0 mi SSW 11.5 mph 16.1 mph N/A   Mostly Cloudy
11:18 AM 77.0 °F - 71.6 °F 83% 30.02 in 10.0 mi South 11.5 mph 16.1 mph N/A   Mostly Cloudy
11:23 AM 77.0 °F - 71.6 °F 83% 30.02 in 10.0 mi SSW 8.1 mph - N/A   Mostly Cloudy
11:58 AM 78.1 °F - 70.2 °F 77% 30.01 in 10.0 mi South 8.1 mph - 0.01 in   Overcast
12:03 PM 78.8 °F - 69.8 °F 74% 30.00 in 10.0 mi SSW 11.5 mph - N/A   Overcast
12:13 PM 78.8 °F - 69.8 °F 74% 29.99 in 10.0 mi SSW 13.8 mph - N/A   Mostly Cloudy
12:18 PM 80.6 °F 83.9 °F 69.8 °F 70% 29.99 in 10.0 mi South 11.5 mph - N/A   Mostly Cloudy
12:58 PM 80.4 °F 83.5 °F 69.3 °F 69% 29.98 in 10.0 mi South 11.5 mph - N/A   Scattered Clouds
1:06 PM 78.8 °F - 69.8 °F 74% 29.97 in 10.0 mi South 9.2 mph - N/A Rain Light Rain
1:16 PM 77.0 °F - 69.8 °F 78% 29.97 in 6.0 mi South 8.1 mph - N/A Rain Light Rain
1:31 PM 77.0 °F - 71.6 °F 83% 29.96 in 10.0 mi SSW 4.6 mph - N/A   Light Drizzle
1:36 PM 75.2 °F - 71.6 °F 89% 29.97 in 10.0 mi West 6.9 mph - N/A   Overcast
1:41 PM 75.2 °F - 71.6 °F 89% 29.97 in 10.0 mi SW 5.8 mph - N/A   Overcast
1:43 PM 75.2 °F - 71.6 °F 89% 29.96 in 10.0 mi SW 5.8 mph - N/A Rain Light Rain
1:48 PM 75.2 °F - 71.6 °F 89% 29.96 in 10.0 mi SW 6.9 mph - N/A Rain Light Rain
1:53 PM 75.2 °F - 71.6 °F 89% 29.96 in 10.0 mi SSW 5.8 mph - N/A Rain Light Rain
1:58 PM 74.5 °F - 70.7 °F 88% 29.96 in 10.0 mi SW 6.9 mph - 0.02 in Rain Light Rain
2:03 PM 75.2 °F - 69.8 °F 83% 29.96 in 10.0 mi SSW 4.6 mph - N/A Rain Light Rain
2:13 PM 75.2 °F - 69.8 °F 83% 29.96 in 10.0 mi SSW 4.6 mph - N/A   Mostly Cloudy
2:33 PM 75.2 °F - 69.8 °F 83% 29.95 in 10.0 mi South 8.1 mph - N/A   Scattered Clouds
2:58 PM 76.6 °F - 70.2 °F 80% 29.97 in 10.0 mi South 5.8 mph - 0.00 in   Clear
3:11 PM 77.0 °F - 69.8 °F 78% 29.96 in 10.0 mi South 8.1 mph - N/A Rain Light Rain
3:24 PM 77.0 °F - 69.8 °F 78% 29.96 in 10.0 mi SSW 4.6 mph - N/A   Mostly Cloudy
3:58 PM 76.8 °F - 70.5 °F 81% 29.97 in 10.0 mi WSW 4.6 mph - 0.00 in   Partly Cloudy
4:58 PM 76.5 °F - 67.8 °F 75% 29.98 in 10.0 mi South 8.1 mph - N/A   Overcast
5:58 PM 74.8 °F - 68.0 °F 79% 30.00 in 10.0 mi South 8.1 mph - N/A   Overcast
6:12 PM 75.2 °F - 68.0 °F 78% 29.99 in 10.0 mi South 10.4 mph - N/A   Light Drizzle
6:41 PM 73.4 °F - 69.8 °F 88% 29.99 in 10.0 mi South 8.1 mph - N/A   Mostly Cloudy
6:58 PM 73.0 °F - 69.4 °F 88% 30.00 in 10.0 mi South 8.1 mph - 0.00 in   Overcast
7:08 PM 73.4 °F - 69.8 °F 88% 30.00 in 10.0 mi South 6.9 mph - N/A   Overcast
7:58 PM 72.9 °F - 69.1 °F 88% 30.01 in 10.0 mi South 8.1 mph - N/A   Mostly Cloudy
8:03 PM 73.4 °F - 69.8 °F 88% 30.00 in 10.0 mi South 6.9 mph - N/A   Overcast
8:38 PM 73.4 °F - 69.8 °F 88% 30.00 in 10.0 mi South 10.4 mph - N/A   Overcast
8:58 PM 73.4 °F - 69.1 °F 86% 30.01 in 10.0 mi South 9.2 mph - N/A   Overcast
9:58 PM 72.9 °F - 69.1 °F 88% 30.02 in 10.0 mi South 12.7 mph - N/A   Scattered Clouds
10:58 PM 72.7 °F - 69.1 °F 88% 30.03 in 10.0 mi South 9.2 mph - N/A   Mostly Cloudy
11:38 PM 73.4 °F - 69.8 °F 88% 30.02 in 10.0 mi South 6.9 mph - N/A   Overcast
11:53 PM 71.6 °F - 69.8 °F 94% 30.01 in 10.0 mi South 8.1 mph - N/A   Overcast
11:58 PM 72.5 °F - 69.3 °F 90% 30.02 in 10.0 mi South 9.2 mph - N/A   Overcast